Location: Boulder Knolls Observatory
(33.2250°N, 117.1147°W)
Time: 10:05:17
(UTC-07:00)

OTV 5 (USA 277) - Visible Passes

Search period start: 24 June 2018 00:00
Search period end: 04 July 2018 00:00
Orbit: 313 x 320 km, 54.5° (Epoch: 21 June)

Date Brightness Start Highest point End Pass type
(mag) Time Alt. Az. Time Alt. Az. Time Alt. Az.
30 Jun ? 22:50:51 10° N 22:50:54 10° N 22:50:54 10° N visible
02 Jul ? 21:46:12 10° NNE 21:47:19 12° NE 21:47:25 12° NE visible
03 Jul ? 21:59:28 10° NNW 22:01:10 26° N 22:01:10 26° N visible
